Location: Ferchesar
(52.6477°N, 12.4298°E)
Time: 10:25:39
(UTC+01:00)

Vanguard 3 - Pass Details

Date: 09 December 2021
Orbit: 508 x 3260 km, 33.3° (Epoch: 25 January)

Event Time Altitude Azimuth Distance (km) Brightness Sun altitude
Exits shadow 01:37:23 26° 135° (SE) 4,956 10.9 -55.1°
Drops below altitude 10° 01:48:42 10° 101° (E) 6,035 11.7 -54.0°
Sets 01:54:08 0° 90° (E) 6,828 12.2 -53.4°
